Location: C�an Torras
(41.5052°N, 1.9280°E)
Time: 01:24:33
(UTC+00:00)

Cosmos 1898 Rocket - Pass Details

Date: 20 January 2021
Orbit: 754 x 783 km, 74.0° (Epoch: 08 March)

Event Time Altitude Azimuth Distance (km) Brightness Sun altitude
Rises 18:15:21 0° 171° (S) 3,241 6.8 -15.2°
Reaches altitude 10° 18:17:57 10° 161° (SSE) 2,314 5.9 -15.7°
Maximum altitude 18:22:31 31° 100° (E) 1,336 4.2 -16.5°
Enters shadow 18:23:39 28° 77° (ENE) 1,416 4.3 -16.7°
